sat.trackr.live / text

‹ back to catalog

S-NET C

NORAD 43189 · 2018-014K

PAYLOAD ACTIVE UNKNOWN

§ Identity

Operator
Country
GER
Launch date
2018-02-01
Launch site
VOSTO
Launch vehicle
Mass (kg)
RCS (m²)

External: N2YO · Heavens-Above · Gunter

§ Orbital elements

Epoch: 2026-09-20T01:33:06.813216Z

Period
94.90 min
Inclination
97.5281°
Eccentricity
0.0011177
Mean motion
15.17373649 rev/d
Perigee alt
506.1 km
Apogee alt
521.5 km
Semi-major
6,891.9 km
B*
1.5999e-4
RAAN
167.5615°
Arg perigee
45.6933°
Mean anomaly
314.5215°
Rev number
47,169

§ Raw data

S-NET C1 43189U 18014K   26263.06466219  .00003131  00000+0  15999-3 0  99952 43189  97.5281 167.5615 0011177  45.6933 314.5215 15.17373649471691

JSON: /api/v1/satellites/43189 · /tle

For live sub-satellite position, see the globe view (requires WebGL).

§ Visibility from observer

Set your observer location to see the next 7 days of passes ≥ 10°. The values pass through the URL so the page stays shareable.

No JS? Fill the form by hand. The geolocation button needs JavaScript.

§ Radio — SatNOGS DB

ModeDescriptionDownlinkUplink
AFSK TUBiX10 AFSK 1k2 TLM 435.950 MHz
FM S-Band Downlink 2.263 GHz
DSTAR MODE FM VOICE - WRONG ASSIGNED BELONGS TO D-STAR ONE (inactive) 435.525 MHz

3 transmitters · refreshed weekly from db.satnogs.org